Regional Weather Roundup
Issued by NWS

Home | Current Version | Previous Version | Text Only | Print | Product List | Glossary Off
Versions: 1 2 3 4 5 6 7 8 9 10 11 12 13 14 15 16 17 18 19 20 21 22 23 24 25 26 27 28 29 30 31 32 33 34 35 36 37 38 39 40 41 42 43 44 45 46 47 48 49 50

000
ASUS45 KTFX 221119
RWRMT
MONTANA HOURLY WEATHER ROUNDUP
NATIONAL WEATHER SERVICE GREAT FALLS MT
519 AM MDT MON SEP 22 2014

NOTE: "FAIR" INDICATES FEW OR NO CLOUDS BELOW 12000 FEET WITH NO
SIGNIFICANT WEATHER AND/OR OBSTRUCTIONS TO VISIBILITY.

* THESE STATIONS ARE NOT UNDER NWS QUALITY CONTROL. THEY DO NOT
   REPORT WEATHER SUCH AS PRECIPITATION OR FOG.

MTZ001>007-043-221200-
WEST OF THE DIVIDE
CITY           SKY/WX    TMP DP  RH WIND       PRES   REMARKS
KALISPELL      PTCLDY    43  39  86 NW3       29.95S
MISSOULA       PTCLDY    50  41  71 CALM      29.99R
BUTTE          MOCLDY    48  41  77 CALM      30.12S
MULLAN PASS    CLEAR     61  39  44 NW5       30.10S
* ESSEX        N/A       47  41  80 E3         N/A
* LINCOLN      N/A       38  35  89 NE1        N/A
* POLSON       N/A       55  42  62 N/A        N/A
* RONAN APT    CLEAR     46  39  77 N/A        N/A
* SEELEY LAKE  N/A       40  34  79 N/A        N/A
* THOMP F APT  CLEAR     51  50  96 N/A        N/A
$$

MTZ008-052>055-221200-
SOUTHWEST MONTANA
CITY           SKY/WX    TMP DP  RH WIND       PRES   REMARKS
BOZEMAN        CLOUDY    52  48  86 NE5       30.08S
DILLON         LGT RAIN  57  52  83 SW9       30.12S
W YELLOWSTONE  CLOUDY    50  50 100 CALM      30.23R
* THREE FORKS  CLOUDY    50  32  50 N/A        N/A
* BOULDER HILL N/A       54  38  55 SW13       N/A
* MONIDA PASS  N/A       50  50 100 SE5        N/A
* RAYNOLDS PAS N/A       51  33  50 SE2        N/A
* WHITEHALL    N/A       53  45  74 E3G11      N/A
* WISE RIVER   N/A       44  37  76 W4         N/A
$$

MTZ009>010-012-014-046-048-049-054-221200-
EAST SLOPES AND CENTRAL MONTANA
CITY           SKY/WX    TMP DP  RH WIND       PRES   REMARKS
CUT BANK       CLEAR     43  37  79 N5        29.94F
GREAT FALLS    PTCLDY    57  43  60 S7        29.94F
HELENA         MOCLDY    54  45  72 CALM      30.02S
MALMSTROM AFB  PTCLDY    52  45  77 S5        29.95F
* CONRAD       CLEAR     41  41 100 N/A        N/A
* EAST GLACIER N/A       58  38  47 NW3G9      N/A
* MONARCH      N/A       48  36  63 S2G7       N/A
* PENDROY      N/A       54  45  72 NW2        N/A
* ROGERS PASS  N/A       57  42  57 NW4G9      N/A
* SAINT MARY   N/A       40  37  89 SE4        N/A
* SWEET GRASS  N/A       53  45  74 S17        N/A
* WHITE SULPH  N/A       47  39  74 NE5        N/A
$$

MTZ011-013-016-021-035-040-045-047-050-051-221200-
NORTH CENTRAL MONTANA
CITY           SKY/WX    TMP DP  RH WIND       PRES   REMARKS
HAVRE          CLEAR     45  41  86 SW3       29.92F
LEWISTOWN      PTCLDY    48  39  71 SE5       29.99F
* CHINOOK      CLEAR     48  43  83 E6        29.92F
* FORT BENTON  CLEAR     46  43  89 CALM      29.94F
* CHESTER      N/A       44  39  83 S2         N/A
* DENTON       N/A       50  42  74 S6         N/A
* GEYSER       N/A       47  43  86 S5         N/A
* JUDITH GAP   N/A       50  43  77 S4         N/A
* LOMA         N/A       54  45  72 N/A        N/A
$$

MTZ017>020-022>027-061-062-221200-
NORTHEAST MONTANA
CITY           SKY/WX    TMP DP  RH WIND       PRES   REMARKS
GLASGOW        CLEAR     50  36  59 E14       29.97F
JORDAN         CLEAR     54  37  53 E6        29.98F
SIDNEY         CLEAR     37  34  89 CALM      30.07F
WOLF POINT     CLEAR     43  36  76 E5        30.02F
* BEAVER HILL  N/A       54  36  51 SE16       N/A
* CIRCLE       N/A       53  38  57 N/A        N/A
* LINDSAY DVD  N/A       47  34  61 E3         N/A
$$

MTZ028>042-056>058-221200-
SOUTHCENTRAL AND SOUTHEAST MONTANA
CITY           SKY/WX    TMP DP  RH WIND       PRES   REMARKS
BAKER          CLEAR     48  36  63 SE9       30.09F
BILLINGS       CLOUDY    55  43  64 W6        30.00F
LIVINGSTON     CLOUDY    57  46  67 NW17G22   30.05S
MILES CITY     CLEAR     57  39  51 SE12      30.01F
* LAUREL APT   CLOUDY    54  39  57 N/A        N/A
* ROUNDUP APT  MOCLDY    48  41  77 S8         N/A
* ALZADA       N/A       43  38  83 E4         N/A
* HYSHAM       N/A       63  39  41 SE2        N/A
* LAME DEER    N/A       58  40  51 SE14G19    N/A
* REED POINT   N/A       53  47  80 NW2        N/A
* ROSCOE HILL  N/A       58  40  51 SW3        N/A
$$

REGIONAL REPORTS...DAKOTAS
CITY           SKY/WX    TMP DP  RH WIND       PRES   REMARKS
WILLISTON      CLEAR     41  36  82 N5        30.08S
DICKINSON      CLEAR     45  37  74 S10       30.10F
BEACH          HAZE      48  36  63 S9        30.09S VSB 3
CROSBY         CLEAR     46  41  83 S12       30.08S
TIOGA          CLEAR     36  36 100 CALM      30.13S
WATFORD CITY   CLEAR     43  37  79 E7        30.06F
BISMARCK       CLEAR     45  41  86 E3        30.17F
GRAND FORKS    CLEAR     45  43  93 S6        30.14S
FARGO          CLEAR     48  45  89 S8        30.19R
BUFFALO SD     CLEAR     48  36  63 E3        30.05F
RAPID CITY     MOCLDY    48  39  71 SE9       30.14F
$$

REGIONAL REPORTS...WYOMING/IDAHO/WASHINGTON
CITY           SKY/WX    TMP DP  RH WIND       PRES   REMARKS
GILLETTE       CLOUDY    57  39  51 S14       30.10F
SHERIDAN       CLOUDY    54  46  74 NW5       30.03F
CODY           CLOUDY   N/A N/A N/A N/A        N/A
YELLOWSTONE LA CLOUDY    46  46 100 CALM      30.30S
SALMON         CLOUDY    63  52  68 SW9       30.06R
MULLAN PASS    CLEAR     61  39  44 NW5       30.10S
SAND POINT     MOCLDY    46  46 100 CALM      29.93S
SPOKANE        MOCLDY    61  45  56 NE3       29.91R
$$

REGIONAL REPORTS...ALBERTA
CITY           SKY/WX    TMP DP  RH WIND       PRES   REMARKS
CALGARY        N/A       55  39  55 CALM      29.87R
LETHBRIDGE     CLEAR     48  41  77 S7        29.86F
MEDICINE HAT   CLEAR     54  45  72 SW3       29.86S
EDMONTON       N/A       41  37  86 SW5       29.77R
WATERTON GATE  N/A       59  41  51 SW10       N/A
CARDSTON       N/A       54  39  57 SW7        N/A
MILK RIVER     N/A       43  41  93 S3         N/A
$$

REGIONAL REPORTS...SASKATCHEWAN
CITY           SKY/WX    TMP DP  RH WIND       PRES   REMARKS
SWIFT CURRENT  CLEAR     57  37  47 S21G28    29.92S
MOOSE JAW      N/A       43  39  86 SE6       30.00S
REGINA         N/A       43  39  86 SE8       30.03S
VAL MARIE      N/A       43  37  79 N2         N/A
ASSINIBOIA     N/A       46  37  71 SE8        N/A
CORONACH       N/A       39  34  82 E5         N/A   WCI  35

$$




USA.gov is the U.S. government's official web portal to all federal, state and local government web resources and services.